This is the latest recevied weather packets stored in our database for station/object IT9FBN-3. If no packets are shown the sender has not sent any weather packets the latest 10 day(s).
| Time | Temp. | Humidity | Pressure | Rain* | Wind** | Luminosity | Snow |
|---|---|---|---|---|---|---|---|
| 1777410003 | 16.67° C | 43% | 1017 hPa | 0 mm | - | - | - |
| 1777409703 | 16.67° C | 43% | 1017 hPa | 0 mm | - | - | - |
| 1777409403 | 16.67° C | 45% | 1016.9 hPa | 0 mm | - | - | - |
| 1777409102 | 16.11° C | 49% | 1016.8 hPa | 0 mm | - | - | - |
| 1777408802 | 16.11° C | 47% | 1016.9 hPa | 0 mm | - | - | - |
| 1777408503 | 16.11° C | 47% | 1017 hPa | 0 mm | - | - | - |
| 1777408203 | 16.11° C | 46% | 1016.9 hPa | 0 mm | - | - | - |
| 1777407903 | 16.67° C | 47% | 1016.9 hPa | 0 mm | - | - | - |
| 1777407602 | 16.67° C | 48% | 1016.9 hPa | 0 mm | - | - | - |
| 1777407303 | 16.67° C | 50% | 1016.8 hPa | 0 mm | - | - | - |
| 1777407002 | 16.67° C | 48% | 1016.9 hPa | 0 mm | - | - | - |
| 1777406703 | 16.67° C | 49% | 1016.9 hPa | 0 mm | - | - | - |
| 1777406403 | 17.22° C | 51% | 1016.9 hPa | 0 mm | - | - | - |
| 1777406103 | 17.78° C | 45% | 1016.8 hPa | 0 mm | - | - | - |
| 1777405803 | 17.22° C | 45% | 1017 hPa | 0 mm | - | - | - |
| 1777405503 | 17.22° C | 43% | 1016.9 hPa | 0 mm | - | - | - |
| 1777405203 | 17.22° C | 43% | 1016.7 hPa | 0 mm | - | - | - |
| 1777404903 | 16.67° C | 43% | 1016.7 hPa | 0 mm | - | - | - |
| 1777404602 | 16.11° C | 49% | 1016.8 hPa | 0 mm | - | - | - |
| 1777404302 | 16.11° C | 51% | 1016.6 hPa | 0 mm | - | - | - |
| 1777404003 | 16.11° C | 50% | 1016.6 hPa | 0 mm | - | - | - |
| 1777403702 | 16.67° C | 50% | 1016.6 hPa | 0 mm | - | - | - |
| 1777403403 | 16.67° C | 45% | 1016.7 hPa | 0 mm | - | - | - |
| 1777403103 | 16.67° C | 43% | 1016.6 hPa | 0 mm | - | - | - |
| 1777402803 | 16.67° C | 40% | 1016.5 hPa | 0 mm | - | - | - |
* Rain latest hour (hover to see other rain measurements)
** Current wind speed in m/s (hover to see current wind gust speed)